Location: Newark
(44.3681°N, 100.3364°W)
Time: 14:36:21
(UTC+00:00)

deb Explorer IX - Pass Details

Date: 25 February 2020
Orbit: 547 x 1100 km, 38.8° (Epoch: 06 April)

Event Time Altitude Azimuth Distance (km) Brightness Sun altitude
Rises 14:36:49 0° 204° (SSW) 3,177 ? 11.2°
Reaches altitude 10° 14:40:46 10° 177° (S) 2,121 ? 11.8°
Maximum altitude 14:42:49 13° 152° (SSE) 1,891 ? 12.1°
Drops below altitude 10° 14:44:46 10° 126° (SE) 2,001 ? 12.5°
Sets 14:48:14 0° 97° (E) 2,818 ? 13.0°
